TimeCDT,TemperatureF,Dew PointF,Humidity,Sea Level PressureIn,VisibilityMPH,Wind Direction,Wind SpeedMPH,Gust SpeedMPH,PrecipitationIn,Events,Conditions,WindDirDegrees,DateUTC
12:52 AM,75.9,66.9,74,29.88,10.0,SSE,8.1,-,N/A,,Clear,150,2013-06-20 05:52:00
1:52 AM,73.9,66.9,79,29.86,10.0,South,5.8,-,N/A,,Clear,180,2013-06-20 06:52:00
2:52 AM,73.9,66.0,76,29.82,10.0,SSE,9.2,-,N/A,,Clear,160,2013-06-20 07:52:00
3:52 AM,75.9,64.9,69,29.82,10.0,South,16.1,-,N/A,,Clear,170,2013-06-20 08:52:00
4:52 AM,75.0,66.0,73,29.85,10.0,SSE,9.2,-,N/A,,Clear,160,2013-06-20 09:52:00
5:52 AM,73.9,68.0,82,29.87,10.0,SSE,10.4,-,N/A,,Clear,160,2013-06-20 10:52:00
6:52 AM,73.9,68.0,82,29.89,10.0,South,9.2,-,N/A,,Clear,170,2013-06-20 11:52:00
7:52 AM,75.0,69.1,82,29.92,10.0,South,8.1,-,N/A,,Clear,170,2013-06-20 12:52:00
8:52 AM,79.0,69.1,72,29.94,10.0,South,12.7,-,N/A,,Clear,180,2013-06-20 13:52:00
9:52 AM,81.0,66.9,62,29.95,10.0,South,15.0,23.0,N/A,,Clear,190,2013-06-20 14:52:00
10:52 AM,84.9,66.9,55,29.95,10.0,South,15.0,21.9,N/A,,Clear,190,2013-06-20 15:52:00
11:52 AM,87.1,66.9,51,29.94,10.0,South,17.3,-,N/A,,Clear,170,2013-06-20 16:52:00
12:52 PM,89.1,66.0,46,29.93,10.0,South,20.7,27.6,N/A,,Clear,170,2013-06-20 17:52:00
1:52 PM,91.0,66.0,44,29.91,10.0,South,13.8,25.3,N/A,,Clear,180,2013-06-20 18:52:00
2:52 PM,91.0,64.0,41,29.89,10.0,SSE,19.6,28.8,N/A,,Clear,160,2013-06-20 19:52:00
3:52 PM,93.0,64.0,38,29.88,10.0,SSE,19.6,27.6,N/A,,Clear,160,2013-06-20 20:52:00
4:52 PM,93.0,63.0,37,29.87,10.0,South,20.7,25.3,N/A,,Clear,170,2013-06-20 21:52:00
5:52 PM,93.0,64.0,38,29.85,10.0,SSE,19.6,26.5,N/A,,Clear,150,2013-06-20 22:52:00
6:52 PM,91.9,62.1,37,29.83,10.0,SSE,19.6,28.8,N/A,,Clear,160,2013-06-20 23:52:00
7:52 PM,89.1,64.0,43,29.85,10.0,SSE,15.0,21.9,N/A,,Clear,160,2013-06-21 00:52:00
8:52 PM,84.9,64.0,49,29.89,10.0,SSE,10.4,-,N/A,,Clear,160,2013-06-21 01:52:00
9:52 PM,82.9,64.9,54,29.91,10.0,SSE,10.4,-,N/A,,Clear,160,2013-06-21 02:52:00
10:52 PM,82.9,64.0,53,29.92,10.0,SSE,11.5,-,N/A,,Clear,160,2013-06-21 03:52:00
11:52 PM,80.1,64.9,60,29.95,10.0,SSE,6.9,-,N/A,,Clear,160,2013-06-21 04:52:00